Previsão horária em Barpali

Hoje, 20 Outubro, Terça-feira

Tempo Temperatura Precipitação Vento Pressão Humidade
00:00 +25°C° 0 mm 0 m/s 740 mmHg 79%
01:00 +26°C° 0 mm 1 m/s 740 mmHg 80%
02:00 +26°C° 0 mm 1 m/s 740 mmHg 81%
03:00 +26°C° 0 mm 1 m/s 739 mmHg 82%
04:00 +25°C° 0 mm 1 m/s 739 mmHg 82%
05:00 +25°C° 0 mm 1 m/s 740 mmHg 83%
06:00 +25°C° 0 mm 1 m/s 740 mmHg 85%
07:00 +26°C° 0 mm 1 m/s 740 mmHg 82%
08:00 +27°C° 0 mm 1 m/s 741 mmHg 79%
09:00 +29°C° 0 mm 1 m/s 741 mmHg 76%
10:00 +30°C° 0 mm 2 m/s 741 mmHg 71%
11:00 +31°C° 0 mm 2 m/s 741 mmHg 67%
12:00 +32°C° 0 mm 2 m/s 740 mmHg 63%
13:00 +32°C° 0 mm 2 m/s 740 mmHg 61%
14:00 +34°C° 0 mm 3 m/s 739 mmHg 60%
15:00 +34°C° 0 mm 3 m/s 738 mmHg 58%
16:00 +31°C° 0 mm 2 m/s 738 mmHg 60%
17:00 +30°C° 0 mm 2 m/s 738 mmHg 63%
18:00 +29°C° 0 mm 1 m/s 738 mmHg 65%
19:00 +28°C° 0 mm 1 m/s 739 mmHg 65%
20:00 +27°C° 0 mm 1 m/s 740 mmHg 64%
21:00 +27°C° 0 mm 1 m/s 741 mmHg 63%
22:00 +27°C° 0 mm 1 m/s 741 mmHg 66%
23:00 +26°C° 0 mm 1 m/s 741 mmHg 69%

Amanhã, 21 Outubro, Quarta-feira

Tempo Temperatura Precipitação Vento Pressão Humidade
00:00 +26°C° 0 mm 1 m/s 740 mmHg 72%
01:00 +26°C° 0 mm 1 m/s 740 mmHg 73%
02:00 +25°C° 0 mm 2 m/s 740 mmHg 75%
03:00 +25°C° 0 mm 2 m/s 740 mmHg 77%
04:00 +25°C° 0 mm 2 m/s 740 mmHg 77%
05:00 +24°C° 0 mm 2 m/s 740 mmHg 78%
06:00 +24°C° 0 mm 2 m/s 740 mmHg 79%
07:00 +25°C° 0 mm 2 m/s 740 mmHg 76%
08:00 +26°C° 0 mm 2 m/s 741 mmHg 74%
09:00 +28°C° 0 mm 3 m/s 742 mmHg 71%
10:00 +29°C° 0 mm 3 m/s 741 mmHg 67%
11:00 +30°C° 0 mm 3 m/s 741 mmHg 63%
12:00 +33°C° 0 mm 3 m/s 741 mmHg 59%
13:00 +33°C° 0 mm 3 m/s 740 mmHg 58%
14:00 +33°C° 0 mm 3 m/s 739 mmHg 57%
15:00 +34°C° 0 mm 3 m/s 738 mmHg 55%
16:00 +31°C° 0 mm 3 m/s 738 mmHg 59%
17:00 +30°C° 0 mm 2 m/s 738 mmHg 63%
18:00 +28°C° 0 mm 1 m/s 738 mmHg 67%
19:00 +28°C° 0 mm 1 m/s 739 mmHg 68%
20:00 +27°C° 0 mm 1 m/s 739 mmHg 69%
21:00 +27°C° 0 mm 1 m/s 740 mmHg 70%
22:00 +26°C° 0 mm 1 m/s 740 mmHg 71%
23:00 +26°C° 0 mm 1 m/s 739 mmHg 72%

Depois de amanhã, 22 Outubro, Quinta-feira

Tempo Temperatura Precipitação Vento Pressão Humidade
00:00 +25°C° 0 mm 1 m/s 739 mmHg 73%
01:00 +25°C° 0 mm 2 m/s 739 mmHg 74%
02:00 +24°C° 0 mm 2 m/s 739 mmHg 76%
03:00 +24°C° 0 mm 2 m/s 738 mmHg 77%
04:00 +24°C° 0 mm 2 m/s 738 mmHg 78%
05:00 +24°C° 0 mm 2 m/s 739 mmHg 80%
06:00 +24°C° 0 mm 2 m/s 739 mmHg 82%
07:00 +25°C° 0 mm 2 m/s 739 mmHg 79%
08:00 +27°C° 0 mm 2 m/s 740 mmHg 76%
09:00 +28°C° 0 mm 2 m/s 741 mmHg 73%
10:00 +29°C° 0 mm 2 m/s 740 mmHg 68%
11:00 +31°C° 0 mm 2 m/s 740 mmHg 64%
12:00 +33°C° 0 mm 3 m/s 740 mmHg 59%
13:00 +32°C° 0 mm 2 m/s 739 mmHg 57%
14:00 +34°C° 0 mm 2 m/s 739 mmHg 55%
15:00 +34°C° 0 mm 2 m/s 738 mmHg 53%
16:00 +32°C° 0 mm 2 m/s 738 mmHg 56%
17:00 +30°C° 0 mm 1 m/s 738 mmHg 59%
18:00 +27°C° 0 mm 0 m/s 738 mmHg 62%
19:00 +28°C° 0 mm 1 m/s 739 mmHg 62%
20:00 +27°C° 0 mm 1 m/s 740 mmHg 62%
21:00 +26°C° 0 mm 1 m/s 740 mmHg 61%
22:00 +26°C° 0 mm 1 m/s 740 mmHg 61%
23:00 +25°C° 0 mm 1 m/s 740 mmHg 60%

23 Outubro, Sexta-feira

Tempo Temperatura Precipitação Vento Pressão Humidade
00:00 +25°C° 0 mm 1 m/s 740 mmHg 59%
01:00 +24°C° 0 mm 2 m/s 739 mmHg 59%
02:00 +23°C° 0 mm 2 m/s 739 mmHg 59%
03:00 +23°C° 0 mm 2 m/s 739 mmHg 59%
04:00 +21°C° 0 mm 2 m/s 739 mmHg 60%
05:00 +21°C° 0 mm 2 m/s 739 mmHg 60%
06:00 +22°C° 0 mm 1 m/s 739 mmHg 61%
07:00 +23°C° 0 mm 1 m/s 740 mmHg 61%
08:00 +24°C° 0 mm 1 m/s 740 mmHg 61%
09:00 +26°C° 0 mm 1 m/s 741 mmHg 61%
10:00 +27°C° 0 mm 1 m/s 741 mmHg 60%
11:00 +29°C° 0 mm 1 m/s 740 mmHg 59%
12:00 +30°C° 0 mm 1 m/s 740 mmHg 58%
13:00 +31°C° 0 mm 2 m/s 739 mmHg 55%
14:00 +32°C° 0 mm 2 m/s 739 mmHg 52%
15:00 +32°C° 0 mm 2 m/s 738 mmHg 49%
16:00 +31°C° 0 mm 2 m/s 739 mmHg 52%
17:00 +29°C° 0 mm 2 m/s 739 mmHg 55%
18:00 +27°C° 0 mm 2 m/s 739 mmHg 58%
19:00 +26°C° 0 mm 1 m/s 739 mmHg 59%
20:00 +25°C° 0 mm 1 m/s 740 mmHg 59%
21:00 +25°C° 0 mm 1 m/s 741 mmHg 59%
22:00 +24°C° 0 mm 1 m/s 741 mmHg 60%
23:00 +24°C° 0 mm 1 m/s 741 mmHg 61%

24 Outubro, Sábado

Tempo Temperatura Precipitação Vento Pressão Humidade
00:00 +23°C° 0 mm 1 m/s 741 mmHg 62%
01:00 +23°C° 0 mm 1 m/s 741 mmHg 63%
02:00 +23°C° 0 mm 1 m/s 740 mmHg 64%
03:00 +20°C° 0 mm 0 m/s 740 mmHg 64%
04:00 +22°C° 0 mm 1 m/s 740 mmHg 66%
05:00 +22°C° 0 mm 1 m/s 740 mmHg 67%
06:00 +21°C° 0 mm 1 m/s 740 mmHg 69%
07:00 +23°C° 0 mm 1 m/s 741 mmHg 67%
08:00 +24°C° 0 mm 1 m/s 741 mmHg 65%
09:00 +26°C° 0 mm 1 m/s 742 mmHg 64%
10:00 +27°C° 0 mm 1 m/s 741 mmHg 61%
11:00 +28°C° 0 mm 2 m/s 741 mmHg 59%
12:00 +30°C° 0 mm 2 m/s 741 mmHg 57%
13:00 +30°C° 0 mm 2 m/s 741 mmHg 55%
14:00 +31°C° 0 mm 1 m/s 740 mmHg 54%
15:00 +31°C° 0 mm 1 m/s 740 mmHg 53%
16:00 +30°C° 0 mm 1 m/s 740 mmHg 57%
17:00 +28°C° 0 mm 1 m/s 740 mmHg 61%
18:00 +27°C° 0 mm 1 m/s 740 mmHg 65%
19:00 +26°C° 0 mm 1 m/s 741 mmHg 65%
20:00 +26°C° 0 mm 1 m/s 741 mmHg 65%
21:00 +25°C° 0 mm 1 m/s 742 mmHg 66%
22:00 +25°C° 0 mm 1 m/s 742 mmHg 66%
23:00 +24°C° 0 mm 1 m/s 742 mmHg 66%

25 Outubro, Domingo

Tempo Temperatura Precipitação Vento Pressão Humidade
00:00 +24°C° 0 mm 1 m/s 742 mmHg 66%
01:00 +22°C° 0 mm 0 m/s 742 mmHg 67%
02:00 +21°C° 0 mm 0 m/s 742 mmHg 69%
03:00 +21°C° 0 mm 0 m/s 741 mmHg 70%
04:00 +21°C° 0 mm 0 m/s 742 mmHg 72%
05:00 +20°C° 0 mm 0 m/s 742 mmHg 73%
06:00 +20°C° 0 mm 0 m/s 742 mmHg 74%
07:00 +21°C° 0 mm 0 m/s 742 mmHg 71%
08:00 +23°C° 0 mm 0 m/s 743 mmHg 68%
09:00 +24°C° 0 mm 0 m/s 743 mmHg 65%
10:00 +26°C° 0 mm 0 m/s 743 mmHg 63%
11:00 +27°C° 0 mm 0 m/s 743 mmHg 60%
12:00 +29°C° 0 mm 0 m/s 743 mmHg 58%
13:00 +31°C° 0 mm 1 m/s 742 mmHg 57%
14:00 +31°C° 0 mm 1 m/s 742 mmHg 56%
15:00 +31°C° 0 mm 1 m/s 741 mmHg 55%
16:00 +30°C° 0 mm 1 m/s 741 mmHg 60%
17:00 +29°C° 0 mm 1 m/s 741 mmHg 65%
18:00 +27°C° 0 mm 1 m/s 741 mmHg 70%
19:00 +27°C° 0 mm 1 m/s 742 mmHg 72%
20:00 +26°C° 0 mm 1 m/s 742 mmHg 73%
21:00 +24°C° 0 mm 0 m/s 743 mmHg 75%
22:00 +23°C° 0 mm 0 m/s 743 mmHg 76%
23:00 +23°C° 0 mm 0 m/s 743 mmHg 77%

26 Outubro, Segunda-feira

Tempo Temperatura Precipitação Vento Pressão Humidade
00:00 +23°C° 0 mm 0 m/s 743 mmHg 78%
01:00 +22°C° 0 mm 0 m/s 743 mmHg 79%
02:00 +22°C° 0 mm 0 m/s 742 mmHg 80%
03:00 +22°C° 0 mm 0 m/s 742 mmHg 81%
04:00 +22°C° 0 mm 0 m/s 742 mmHg 82%
05:00 +22°C° 0 mm 0 m/s 743 mmHg 83%
06:00 +22°C° 0 mm 0 m/s 743 mmHg 83%
07:00 +23°C° 0 mm 0 m/s 743 mmHg 81%
08:00 +24°C° 0 mm 0 m/s 744 mmHg 79%
09:00 +27°C° 0 mm 1 m/s 744 mmHg 76%
10:00 +25°C° 0 mm 0 m/s 744 mmHg 75%
11:00 +26°C° 0 mm 0 m/s 744 mmHg 73%
12:00 +26°C° 0 mm 0 m/s 743 mmHg 72%
13:00 +29°C° 0 mm 1 m/s 743 mmHg 72%
14:00 +29°C° 0 mm 1 m/s 742 mmHg 73%
15:00 +29°C° 0 mm 1 m/s 741 mmHg 73%
16:00 +28°C° 0 mm 1 m/s 742 mmHg 75%
17:00 +27°C° 0 mm 1 m/s 742 mmHg 77%
18:00 +27°C° 0 mm 1 m/s 742 mmHg 79%
19:00 +26°C° 0 mm 1 m/s 742 mmHg 79%
20:00 +24°C° 0 mm 0 m/s 743 mmHg 80%
21:00 +23°C° 0 mm 0 m/s 743 mmHg 80%
22:00 +23°C° 0 mm 0 m/s 743 mmHg 81%
23:00 +23°C° 0 mm 0 m/s 743 mmHg 81%
Mostrar mais